VOZ022 OTHH-YPPH

Flight info

Callsign VOZ022
Flight time N/A
Altitude 33000
Route BUNDU3E BUNDU B415 SIXIV N318 TOLDA P570 KITAL L894 BIBGO DCT SOLIH/N0491F350 DCT 07S080E 11S083E 16S087E 19S090E 24S096E/N0482F370 28S103E 30S108E DCT OPEGA T12 PH DCT
Aircraft B77W/H-SDE1E2E3FGHIJ2J3J4J5M1RWXY/LB1D1

Departure

Time N/A
Airport Hamad International Airport (OTHH)

Arrival

Time 2026-04-27 09:33
Airport Perth International Airport (YPPH)
Time Latitude Longitude Altitude Speed Heading
2026-04-27 08:13 -28.62917 104.50379 35058 ft 553 kts 116°
2026-04-27 08:14 -28.66171 104.58317 35042 ft 552 kts 116°
2026-04-27 08:14 -28.69430 104.66282 35045 ft 553 kts 116°
2026-04-27 08:15 -28.72659 104.74188 35042 ft 553 kts 116°
2026-04-27 08:15 -28.75916 104.82182 35034 ft 553 kts 116°
2026-04-27 08:16 -28.79136 104.90099 35046 ft 553 kts 116°
2026-04-27 08:16 -28.80745 104.94062 35318 ft 551 kts 116°
2026-04-27 08:16 -28.82355 104.98032 35119 ft 551 kts 116°
2026-04-27 08:17 -28.85545 105.05909 34946 ft 549 kts 116°
2026-04-27 08:17 -28.88769 105.13885 35048 ft 551 kts 116°
2026-04-27 08:18 -28.91974 105.21832 35071 ft 551 kts 115°
2026-04-27 08:18 -28.95148 105.29715 35058 ft 551 kts 115°
2026-04-27 08:19 -28.98349 105.37685 35060 ft 550 kts 115°
2026-04-27 08:19 -29.01547 105.45665 35051 ft 549 kts 115°
2026-04-27 08:20 -29.04733 105.53629 35038 ft 549 kts 115°
2026-04-27 08:20 -29.07903 105.61570 35055 ft 548 kts 115°
2026-04-27 08:21 -29.11072 105.69527 35023 ft 549 kts 114°
2026-04-27 08:21 -29.14233 105.77480 35023 ft 550 kts 114°
2026-04-27 08:22 -29.17390 105.85440 35028 ft 550 kts 114°
2026-04-27 08:22 -29.20543 105.93404 35037 ft 548 kts 114°
2026-04-27 08:23 -29.23683 106.01356 35046 ft 548 kts 114°
2026-04-27 08:23 -29.26818 106.09309 35027 ft 549 kts 114°
2026-04-27 08:24 -29.29957 106.17291 35047 ft 548 kts 114°
2026-04-27 08:24 -29.33081 106.25249 35035 ft 548 kts 113°
2026-04-27 08:25 -29.36186 106.33178 35042 ft 547 kts 113°
2026-04-27 08:25 -29.39328 106.41217 35028 ft 549 kts 113°
2026-04-27 08:26 -29.42442 106.49204 35048 ft 549 kts 113°
2026-04-27 08:26 -29.45558 106.57211 35053 ft 549 kts 113°
2026-04-27 08:27 -29.48689 106.65273 35039 ft 549 kts 112°
2026-04-27 08:27 -29.51794 106.73287 35032 ft 548 kts 112°
2026-04-27 08:28 -29.54897 106.81313 35030 ft 548 kts 112°
2026-04-27 08:28 -29.58000 106.89356 35045 ft 549 kts 112°
2026-04-27 08:29 -29.61067 106.97324 35043 ft 550 kts 112°
2026-04-27 08:29 -29.64154 107.05360 35041 ft 549 kts 112°
2026-04-27 08:30 -29.67243 107.13419 35043 ft 550 kts 112°
2026-04-27 08:30 -29.70318 107.21462 35042 ft 550 kts 112°
2026-04-27 08:31 -29.73408 107.29558 35051 ft 550 kts 112°
2026-04-27 08:31 -29.76453 107.37556 35056 ft 551 kts 112°
2026-04-27 08:32 -29.79533 107.45663 35061 ft 550 kts 112°
2026-04-27 08:32 -29.82593 107.53735 35045 ft 551 kts 112°
2026-04-27 08:33 -29.85675 107.61884 35059 ft 551 kts 111°
2026-04-27 08:33 -29.88729 107.69976 35051 ft 551 kts 111°
2026-04-27 08:34 -29.91792 107.78112 35042 ft 552 kts 111°
2026-04-27 08:34 -29.94840 107.86224 35046 ft 552 kts 111°
2026-04-27 08:35 -29.97879 107.94331 35035 ft 552 kts 111°
2026-04-27 08:35 -30.00745 108.02563 35040 ft 550 kts 107°
2026-04-27 08:36 -30.03258 108.10920 35045 ft 550 kts 106°
2026-04-27 08:36 -30.05758 108.19296 35035 ft 551 kts 106°
2026-04-27 08:37 -30.08234 108.27618 35040 ft 552 kts 106°
2026-04-27 08:37 -30.10722 108.36002 35038 ft 550 kts 106°
2026-04-27 08:38 -30.13223 108.44460 35031 ft 552 kts 106°
2026-04-27 08:38 -30.15696 108.52841 35040 ft 552 kts 106°
2026-04-27 08:39 -30.18178 108.61280 35033 ft 553 kts 106°
2026-04-27 08:39 -30.20642 108.69675 35031 ft 553 kts 105°
2026-04-27 08:40 -30.23103 108.78086 35035 ft 552 kts 105°
2026-04-27 08:40 -30.25555 108.86487 35035 ft 553 kts 105°
2026-04-27 08:41 -30.28009 108.94920 35037 ft 552 kts 105°
2026-04-27 08:41 -30.30435 109.03278 35037 ft 551 kts 105°
2026-04-27 08:42 -30.32897 109.11781 35033 ft 553 kts 105°
2026-04-27 08:42 -30.35329 109.20207 35040 ft 554 kts 105°
2026-04-27 08:43 -30.37774 109.28699 35033 ft 554 kts 105°
2026-04-27 08:43 -30.40195 109.37132 35037 ft 554 kts 105°
2026-04-27 08:44 -30.42641 109.45673 35038 ft 553 kts 105°
2026-04-27 08:44 -30.45074 109.54194 35042 ft 554 kts 105°
2026-04-27 08:45 -30.47493 109.62689 35033 ft 554 kts 105°
2026-04-27 08:45 -30.49905 109.71184 35035 ft 552 kts 105°
2026-04-27 08:46 -30.52321 109.79714 35026 ft 553 kts 105°
2026-04-27 08:46 -30.54727 109.88236 35029 ft 554 kts 105°
2026-04-27 08:47 -30.57124 109.96751 35033 ft 553 kts 105°
2026-04-27 08:47 -30.59503 110.05221 35024 ft 553 kts 105°
2026-04-27 08:48 -30.61885 110.13731 35019 ft 554 kts 105°
2026-04-27 08:48 -30.63084 110.18018 35249 ft 554 kts 105°
2026-04-27 08:48 -30.64272 110.22280 34866 ft 554 kts 105°
2026-04-27 08:49 -30.65445 110.26485 35190 ft 550 kts 105°
2026-04-27 08:49 -30.66636 110.30769 35047 ft 555 kts 105°
2026-04-27 08:49 -30.68990 110.39246 35031 ft 553 kts 105°
2026-04-27 08:50 -30.71344 110.47750 35038 ft 553 kts 105°
2026-04-27 08:50 -30.73680 110.56210 35034 ft 553 kts 105°
2026-04-27 08:51 -30.76023 110.64722 35038 ft 554 kts 105°
2026-04-27 08:51 -30.78375 110.73290 35028 ft 554 kts 104°
2026-04-27 08:52 -30.80711 110.81825 35027 ft 555 kts 104°
2026-04-27 08:52 -30.83038 110.90353 35034 ft 556 kts 104°
2026-04-27 08:53 -30.85373 110.98932 35033 ft 556 kts 104°
2026-04-27 08:53 -30.87690 111.07470 35031 ft 556 kts 104°
2026-04-27 08:54 -30.90003 111.16019 35034 ft 555 kts 104°
2026-04-27 08:54 -30.92310 111.24571 35042 ft 555 kts 104°
2026-04-27 08:55 -30.94620 111.33161 35044 ft 556 kts 104°
2026-04-27 08:55 -30.96923 111.41750 35043 ft 556 kts 104°
2026-04-27 08:56 -30.99218 111.50330 35046 ft 555 kts 104°
2026-04-27 08:56 -31.01513 111.58937 35053 ft 555 kts 104°
2026-04-27 08:57 -31.04928 111.71793 35051 ft 554 kts 104°
2026-04-27 08:58 -31.07202 111.80388 35061 ft 554 kts 104°
2026-04-27 08:58 -31.09469 111.88982 35058 ft 555 kts 103°
2026-04-27 08:59 -31.11732 111.97581 35032 ft 554 kts 103°
2026-04-27 08:59 -31.13990 112.06194 35032 ft 554 kts 103°
2026-04-27 09:00 -31.16249 112.14831 35036 ft 553 kts 103°
2026-04-27 09:00 -31.18494 112.23441 35037 ft 552 kts 103°
2026-04-27 09:01 -31.20727 112.32037 35040 ft 552 kts 103°
2026-04-27 09:01 -31.22953 112.40627 35037 ft 552 kts 103°
2026-04-27 09:02 -31.25180 112.49249 35043 ft 553 kts 103°
2026-04-27 09:02 -31.27395 112.57847 35046 ft 551 kts 103°
2026-04-27 09:03 -31.29606 112.66461 35042 ft 553 kts 103°
2026-04-27 09:03 -31.31824 112.75125 35039 ft 553 kts 103°
2026-04-27 09:04 -31.34041 112.83813 35041 ft 553 kts 103°
2026-04-27 09:04 -31.36225 112.92400 35043 ft 554 kts 103°
2026-04-27 09:05 -31.38419 113.01051 35040 ft 553 kts 103°
2026-04-27 09:05 -31.40613 113.09732 35043 ft 555 kts 103°
2026-04-27 09:06 -31.42796 113.18393 35044 ft 553 kts 103°
2026-04-27 09:06 -31.44958 113.26999 35045 ft 554 kts 103°
2026-04-27 09:07 -31.47131 113.35679 35046 ft 553 kts 103°
2026-04-27 09:07 -31.48875 113.44415 35038 ft 551 kts 98°
2026-04-27 09:08 -31.50503 113.53243 35030 ft 552 kts 99°
2026-04-27 09:08 -31.52126 113.62097 35030 ft 551 kts 99°
2026-04-27 09:09 -31.53736 113.70922 35021 ft 551 kts 98°
2026-04-27 09:09 -31.55347 113.79795 35023 ft 552 kts 98°
2026-04-27 09:10 -31.56947 113.88647 35025 ft 552 kts 98°
2026-04-27 09:10 -31.58513 113.97330 34300 ft 543 kts 98°
2026-04-27 09:10 -31.59294 114.01694 33078 ft 550 kts 98°
2026-04-27 09:11 -31.60070 114.06035 31972 ft 553 kts 98°
2026-04-27 09:11 -31.60865 114.10485 30970 ft 554 kts 98°
2026-04-27 09:11 -31.61640 114.14830 30259 ft 549 kts 98°
2026-04-27 09:11 -31.62422 114.19218 29754 ft 540 kts 98°
2026-04-27 09:12 -31.63174 114.23447 29193 ft 533 kts 98°
2026-04-27 09:12 -31.63934 114.27734 28581 ft 528 kts 98°
2026-04-27 09:12 -31.64676 114.31933 27957 ft 523 kts 98°
2026-04-27 09:12 -31.65405 114.36066 27347 ft 518 kts 98°
2026-04-27 09:13 -31.66123 114.40141 26729 ft 513 kts 98°
2026-04-27 09:13 -31.66844 114.44245 26112 ft 509 kts 98°
2026-04-27 09:13 -31.67546 114.48244 25499 ft 504 kts 98°
2026-04-27 09:13 -31.68249 114.52258 24881 ft 499 kts 98°
2026-04-27 09:14 -31.68939 114.56213 24266 ft 495 kts 98°
2026-04-27 09:14 -31.69626 114.60152 23645 ft 491 kts 98°
2026-04-27 09:14 -31.70304 114.64044 23038 ft 487 kts 98°
2026-04-27 09:14 -31.70985 114.67962 22413 ft 483 kts 98°
2026-04-27 09:15 -31.71651 114.71808 21805 ft 479 kts 98°
2026-04-27 09:15 -31.72318 114.75659 21176 ft 475 kts 98°
2026-04-27 09:15 -31.72968 114.79421 20565 ft 472 kts 98°
2026-04-27 09:15 -31.73620 114.83208 19976 ft 468 kts 99°
2026-04-27 09:16 -31.74255 114.86897 19486 ft 461 kts 99°
2026-04-27 09:16 -31.74893 114.90608 19006 ft 454 kts 99°
2026-04-27 09:16 -31.75512 114.94220 18514 ft 448 kts 99°
2026-04-27 09:16 -31.76124 114.97794 17946 ft 445 kts 100°
2026-04-27 09:17 -31.76728 115.01333 17353 ft 442 kts 100°
2026-04-27 09:17 -31.77334 115.04888 16738 ft 439 kts 100°
2026-04-27 09:17 -31.77929 115.08384 16139 ft 437 kts 100°
2026-04-27 09:17 -31.78522 115.11871 15530 ft 434 kts 100°
2026-04-27 09:18 -31.79112 115.15346 14910 ft 431 kts 100°
2026-04-27 09:18 -31.79694 115.18786 14315 ft 428 kts 100°
2026-04-27 09:18 -31.80277 115.22228 13705 ft 425 kts 100°
2026-04-27 09:18 -31.80859 115.25678 13092 ft 422 kts 101°
2026-04-27 09:19 -31.81460 115.29073 12488 ft 418 kts 104°
2026-04-27 09:19 -31.82240 115.32400 11882 ft 414 kts 105°
2026-04-27 09:19 -31.83023 115.35649 11284 ft 411 kts 105°
2026-04-27 09:19 -31.83797 115.38883 10750 ft 405 kts 105°
2026-04-27 09:20 -31.84553 115.42070 10632 ft 388 kts 105°
2026-04-27 09:20 -31.85256 115.45052 10536 ft 372 kts 105°
2026-04-27 09:20 -31.85933 115.47935 10419 ft 358 kts 105°
2026-04-27 09:20 -31.86586 115.50725 10305 ft 345 kts 105°
2026-04-27 09:21 -31.86963 115.53450 10182 ft 331 kts 90°
2026-04-27 09:21 -31.86937 115.56094 9990 ft 321 kts 86°
2026-04-27 09:21 -31.86837 115.58706 9749 ft 315 kts 85°
2026-04-27 09:21 -31.86726 115.61256 9492 ft 310 kts 86°
2026-04-27 09:22 -31.86616 115.63777 9195 ft 306 kts 85°
2026-04-27 09:22 -31.86507 115.66251 8858 ft 305 kts 85°
2026-04-27 09:22 -31.86399 115.68735 8522 ft 303 kts 85°
2026-04-27 09:22 -31.86291 115.71193 8187 ft 301 kts 85°
2026-04-27 09:23 -31.86183 115.73635 7844 ft 299 kts 85°
2026-04-27 09:23 -31.86076 115.76068 7491 ft 295 kts 85°
2026-04-27 09:23 -31.85970 115.78453 7156 ft 291 kts 85°
2026-04-27 09:23 -31.85864 115.80827 6821 ft 287 kts 85°
2026-04-27 09:24 -31.85717 115.83155 6464 ft 282 kts 76°
2026-04-27 09:24 -31.84993 115.85236 6109 ft 273 kts 57°
2026-04-27 09:24 -31.84025 115.87125 5768 ft 270 kts 56°
2026-04-27 09:24 -31.83052 115.88990 5415 ft 267 kts 56°
2026-04-27 09:25 -31.82071 115.90868 5051 ft 264 kts 56°
2026-04-27 09:25 -31.81115 115.92699 4713 ft 261 kts 56°
2026-04-27 09:25 -31.80164 115.94521 4414 ft 260 kts 56°
2026-04-27 09:25 -31.79215 115.96340 4161 ft 257 kts 56°
2026-04-27 09:26 -31.78287 115.98120 3913 ft 254 kts 57°
2026-04-27 09:26 -31.77360 115.99898 3664 ft 254 kts 56°
2026-04-27 09:26 -31.76433 116.01675 3414 ft 252 kts 57°
2026-04-27 09:26 -31.75528 116.03411 3232 ft 250 kts 57°
2026-04-27 09:27 -31.74607 116.05180 3104 ft 250 kts 58°
2026-04-27 09:27 -31.73873 116.07006 2989 ft 248 kts 79°
2026-04-27 09:27 -31.73959 116.09008 2946 ft 251 kts 109°
2026-04-27 09:27 -31.74872 116.10684 2791 ft 242 kts 141°
2026-04-27 09:28 -31.76325 116.11555 2781 ft 226 kts 171°
2026-04-27 09:28 -31.77845 116.11678 2786 ft 209 kts 181°
2026-04-27 09:28 -31.79237 116.11695 2779 ft 191 kts 182°
2026-04-27 09:28 -31.80518 116.11710 2789 ft 179 kts 182°
2026-04-27 09:29 -31.81758 116.11720 2780 ft 176 kts 182°
2026-04-27 09:29 -31.82966 116.11730 2769 ft 174 kts 182°
2026-04-27 09:29 -31.84198 116.11740 2766 ft 175 kts 182°
2026-04-27 09:29 -31.85410 116.11626 2715 ft 172 kts 203°
2026-04-27 09:30 -31.86342 116.10792 2611 ft 172 kts 231°
2026-04-27 09:30 -31.87027 116.09646 2353 ft 173 kts 238°
2026-04-27 09:30 -31.87650 116.08443 2109 ft 171 kts 238°
2026-04-27 09:30 -31.88259 116.07256 1867 ft 165 kts 238°
2026-04-27 09:31 -31.88840 116.06127 1662 ft 158 kts 238°
2026-04-27 09:31 -31.89409 116.05026 1449 ft 154 kts 238°
2026-04-27 09:31 -31.89954 116.03969 1251 ft 149 kts 238°
2026-04-27 09:31 -31.90483 116.02944 1057 ft 146 kts 238°
2026-04-27 09:32 -31.91012 116.01915 855 ft 145 kts 238°
2026-04-27 09:32 -31.91534 116.00904 662 ft 145 kts 238°
2026-04-27 09:32 -31.92057 115.99896 481 ft 144 kts 238°
2026-04-27 09:32 -31.92576 115.98887 312 ft 143 kts 238°
2026-04-27 09:33 -31.93092 115.97877 131 ft 143 kts 238°
2026-04-27 09:33 -31.93577 115.96938 81 ft 112 kts 239°
2026-04-27 09:33 -31.93864 115.96378 81 ft 50 kts 239°
2026-04-27 09:33 -31.94001 115.96113 81 ft 37 kts 239°
2026-04-27 09:34 -31.94078 115.95970 81 ft 12 kts 217°
2026-04-27 09:34 -31.94159 115.95979 81 ft 12 kts 151°
2026-04-27 09:34 -31.94230 115.96029 81 ft 11 kts 149°
2026-04-27 09:34 -31.94302 115.96080 81 ft 12 kts 149°
2026-04-27 09:35 -31.94378 115.96138 81 ft 13 kts 134°
2026-04-27 09:35 -31.94419 115.96242 81 ft 14 kts 107°
2026-04-27 09:35 -31.94445 115.96360 81 ft 15 kts 104°
2026-04-27 09:35 -31.94472 115.96487 81 ft 16 kts 103°
2026-04-27 09:36 -31.94500 115.96621 81 ft 16 kts 104°
2026-04-27 09:36 -31.94462 115.96727 81 ft 15 kts 26°
2026-04-27 09:36 -31.94360 115.96761 81 ft 14 kts 13°
2026-04-27 09:36 -31.94261 115.96789 81 ft 14 kts 14°
2026-04-27 09:37 -31.94165 115.96817 81 ft 13 kts 14°
2026-04-27 09:37 -31.94073 115.96845 81 ft 13 kts 14°
2026-04-27 09:37 -31.93984 115.96870 81 ft 13 kts 14°
2026-04-27 09:37 -31.93918 115.96925 81 ft 11 kts 79°
2026-04-27 09:38 -31.93931 115.97022 81 ft 12 kts 103°
2026-04-27 09:38 -31.93951 115.97116 81 ft 11 kts 113°
2026-04-27 09:38 -31.94013 115.97131 81 ft 9 kts 194°
2026-04-27 09:38 -31.94036 115.97125 81 ft 2 kts 194°
2026-04-27 09:39 -31.94045 115.97122 81 ft 0 kts 194°